Location: Eppenbrunn
(49.1158°N, 7.5601°E)
Time: 18:10:10
(UTC+00:00)

ATLAS 5 CENTAUR R/B - Pass Details

Date: 09 April 2020
Orbit: 543 x 1116 km, 63.4° (Epoch: 01 May)

Event Time Altitude Azimuth Distance (km) Brightness Sun altitude
Rises 21:45:07 0° 277° (W) 2,859 5.5 -28.3°
Reaches altitude 10° 21:47:48 10° 296° (WNW) 2,033 4.8 -28.6°
Maximum altitude 21:51:12 20° 344° (NNW) 1,580 4.3 -28.8°
Drops below altitude 10° 21:54:58 10° 31° (NNE) 2,280 4.8 -29.1°
Sets 21:58:13 0° 48° (NE) 3,331 5.5 -29.4°
